DW7281 Weather Reports


Display with metric or nautical units.
time (UTC)temp
F
wind
direction
speed
MPH
gust
MPH
rain 1hr
in
rain 24hr
in
rain mn
in
humidity
%
barometer
mb
20221003124038 51 34 6.0 13.0 0.00 0.00 0.00 87 1022.7
20221003123540 51 38 4.0 11.0 0.00 0.00 0.00 87 1022.6
20221003123056 52 10 4.0 10.0 0.00 0.00 0.00 87 1022.5
20221003122537 52 36 3.0 11.0 0.00 0.00 0.00 86 1022.6
20221003122037 52 20 4.0 11.0 0.00 0.00 0.00 86 1022.6
20221003121542 52 37 4.0 10.0 0.00 0.00 0.00 86 1022.6
20221003121038 52 49 4.0 13.0 0.00 0.00 0.00 85 1022.6
20221003120538 52 52 4.0 13.0 0.00 0.00 0.00 85 1022.6
20221003120056 52 9 5.0 13.0 0.00 0.00 0.00 85 1022.5
20221003115536 52 33 4.0 12.0 0.00 0.01 0.00 85 1022.6
20221003115039 52 34 4.0 11.0 0.00 0.01 0.00 84 1022.7
20221003114601 52 32 5.0 10.0 0.00 0.01 0.00 84 1022.6
20221003114039 52 34 3.0 10.0 0.00 0.01 0.00 84 1022.7
20221003113536 53 34 4.0 12.0 0.00 0.01 0.00 84 1022.8
20221003113052 53 65 4.0 12.0 0.00 0.01 0.00 84 1022.8
20221003112536 53 57 6.0 12.0 0.00 0.01 0.00 84 1022.6
20221003112041 53 32 4.0 11.0 0.00 0.01 0.00 84 1022.6
20221003111549 53 26 5.0 11.0 0.00 0.01 0.00 84 1022.6
20221003111038 53 26 4.0 10.0 0.00 0.01 0.00 84 1022.8
20221003110535 53 57 4.0 10.0 0.00 0.01 0.00 84 1022.6
20221003110049 53 65 4.0 10.0 0.00 0.01 0.00 85 1022.8
20221003105535 53 42 4.0 10.0 0.00 0.01 0.00 84 1022.7
20221003105035 53 34 5.0 10.0 0.00 0.01 0.00 84 1022.7
20221003104607 54 9 4.0 12.0 0.00 0.01 0.00 84 1022.6
20221003104042 54 45 5.0 12.0 0.00 0.01 0.00 84 1022.6
20221003103537 54 48 4.0 10.0 0.00 0.01 0.00 83 1022.4
20221003103044 54 17 3.0 10.0 0.00 0.01 0.00 83 1022.3
20221003102539 54 57 4.0 12.0 0.00 0.01 0.00 83 1022.3
20221003102036 54 30 3.0 12.0 0.00 0.01 0.00 83 1022.3
20221003101548 54 29 5.0 12.0 0.00 0.01 0.00 82 1022.2
20221003101039 54 337 4.0 12.0 0.00 0.01 0.00 82 1022.2
20221003100538 55 32 4.0 12.0 0.00 0.01 0.00 82 1022.1
20221003100104 55 0 4.0 13.0 0.00 0.01 0.00 82 1021.8
20221003095536 55 9 6.0 14.0 0.00 0.01 0.00 82 1021.7
20221003095036 55 32 6.0 14.0 0.00 0.01 0.00 82 1021.8
20221003094552 55 11 5.0 11.0 0.00 0.01 0.00 81 1021.7
20221003094036 55 28 4.0 11.0 0.00 0.01 0.00 81 1021.8
20221003093536 55 0 3.0 10.0 0.00 0.01 0.00 81 1021.8
20221003093051 55 46 5.0 12.0 0.00 0.01 0.00 81 1021.5
20221003092536 55 40 6.0 12.0 0.00 0.01 0.00 81 1021.5
20221003092035 55 30 5.0 11.0 0.00 0.01 0.00 81 1021.4
20221003091541 55 38 5.0 11.0 0.00 0.01 0.00 80 1021.3
20221003091038 56 12 5.0 12.0 0.00 0.01 0.00 80 1021.2
20221003090536 56 62 5.0 12.0 0.00 0.01 0.00 80 1021.3
20221003090105 56 40 5.0 13.0 0.00 0.01 0.00 80 1021.2
20221003085535 56 360 5.0 13.0 0.00 0.01 0.00 79 1021.0
20221003085036 56 35 6.0 13.0 0.00 0.01 0.00 79 1021.1
20221003084544 57 11 4.0 11.0 0.00 0.01 0.00 79 1020.9
20221003084037 57 13 4.0 10.0 0.00 0.01 0.00 78 1020.8
20221003083536 57 55 2.0 10.0 0.00 0.01 0.00 77 1020.8
20221003083046 57 24 3.0 11.0 0.00 0.01 0.00 76 1020.7
20221003082535 57 29 4.0 11.0 0.00 0.01 0.00 75 1020.7
20221003082035 58 57 4.0 10.0 0.00 0.01 0.00 73 1020.7
20221003081550 58 15 4.0 12.0 0.00 0.01 0.00 71 1020.7
20221003081035 59 57 6.0 12.0 0.00 0.01 0.00 70 1020.7
20221003080536 59 52 5.0 9.0 0.00 0.01 0.00 65 1020.7
20221003080058 60 34 0.0 5.0 0.00 0.01 0.00 58 1020.5
20221003075538 60 0 1.0 5.0 0.00 0.01 0.00 57 1020.4
20221003075036 61 31 1.0 5.0 0.00 0.01 0.00 56 1020.3
20221003074546 61 32 1.0 5.0 0.00 0.01 0.00 56 1020.2
20221003074038 61 0 2.0 6.0 0.00 0.01 0.00 55 1020.1
20221003073538 62 39 1.0 6.0 0.00 0.01 0.00 55 1020.3
20221003073056 62 0 1.0 9.0 0.00 0.01 0.00 55 1020.2
20221003072536 62 55 2.0 9.0 0.00 0.01 0.00 54 1020.3
20221003072037 62 57 1.0 9.0 0.00 0.01 0.00 54 1020.1
20221003071547 63 0 1.0 7.0 0.00 0.01 0.00 54 1020.1
20221003071036 63 28 1.0 6.0 0.00 0.01 0.00 54 1020.0
20221003070536 63 82 2.0 6.0 0.00 0.01 0.00 54 1020.0
20221003070052 63 55 0.0 6.0 0.00 0.01 0.00 54 1019.9
20221003065539 63 34 2.0 12.0 0.00 0.01 0.00 53 1019.8
20221003065035 63 65 2.0 12.0 0.00 0.01 0.00 52 1019.7
20221003064549 64 78 5.0 8.0 0.00 0.01 0.00 53 1019.6
20221003064036 64 19 2.0 8.0 0.00 0.01 0.00 54 1019.6
20221003063538 63 0 2.0 8.0 0.00 0.01 0.00 52 1019.6
20221003063107 63 315 1.0 9.0 0.00 0.01 0.00 53 1019.6
20221003062542 63 28 2.0 9.0 0.00 0.01 0.00 53 1019.5
20221003062036 64 9 2.0 8.0 0.00 0.01 0.00 52 1019.5
20221003061544 63 0 0.0 8.0 0.00 0.01 0.00 52 1019.5
20221003061039 63 0 1.0 9.0 0.00 0.01 0.00 52 1019.4
20221003060538 64 0 1.0 9.0 0.00 0.01 0.00 53 1019.4
20221003060046 63 0 0.0 6.0 0.00 0.01 0.00 54 1019.3
20221003055536 62 0 2.0 6.0 0.00 0.01 0.00 53 1019.2
20221003055035 62 87 1.0 7.0 0.00 0.01 0.00 54 1019.1
20221003054549 62 28 2.0 11.0 0.00 0.01 0.00 51 1019.1
20221003054039 63 59 4.0 11.0 0.00 0.01 0.00 53 1018.9
20221003053537 64 41 4.0 11.0 0.00 0.01 0.00 54 1018.8
20221003053042 63 0 2.0 10.0 0.00 0.01 0.00 54 1018.7
20221003052538 62 315 2.0 11.0 0.00 0.01 0.00 55 1018.6
20221003052038 63 33 3.0 11.0 0.00 0.01 0.00 53 1018.7
20221003051546 63 30 4.0 9.0 0.00 0.01 0.00 53 1018.7
20221003051036 64 51 3.0 9.0 0.00 0.01 0.00 53 1018.6
20221003050535 64 9 2.0 9.0 0.00 0.01 0.00 53 1018.7
20221003050057 64 29 1.0 9.0 0.00 0.01 0.00 53 1018.7
20221003045538 66 0 4.0 11.0 0.00 0.01 0.00 49 1018.7
20221003045036 66 15 3.0 11.0 0.00 0.01 0.00 52 1018.7
20221003044543 65 322 3.0 11.0 0.00 0.01 0.00 51 1018.7
20221003044038 64 0 1.0 11.0 0.00 0.01 0.00 51 1018.8
20221003043539 65 5 4.0 11.0 0.00 0.01 0.00 51 1018.9
20221003043044 64 15 4.0 10.0 0.00 0.01 0.00 51 1018.8
20221003042536 65 11 1.0 10.0 0.00 0.01 0.00 51 1018.9
20221003042035 65 46 3.0 10.0 0.00 0.01 0.00 52 1018.9
20221003041545 66 78 2.0 10.0 0.00 0.01 0.00 53 1018.8
20221003041035 64 36 2.0 11.0 0.00 0.01 0.00 53 1018.9
20221003040536 65 9 4.0 11.0 0.00 0.01 0.00 51 1019.0
20221003040111 64 36 0.0 9.0 0.00 0.01 0.00 56 1019.1
20221003035538 64 35 1.0 9.0 0.00 0.01 0.00 51 1019.2
20221003035038 65 28 0.0 9.0 0.00 0.01 0.00 55 1019.1
20221003034554 65 37 2.0 10.0 0.00 0.01 0.00 53 1019.0
20221003034038 65 37 3.0 10.0 0.00 0.01 0.00 55 1019.1
20221003033538 65 0 3.0 11.0 0.00 0.01 0.00 51 1019.2
20221003033049 65 67 5.0 11.0 0.00 0.01 0.00 54 1019.2
20221003032539 65 0 3.0 14.0 0.00 0.01 0.00 55 1019.3
20221003032040 65 69 5.0 14.0 0.00 0.01 0.00 54 1019.3
20221003031547 65 331 2.0 10.0 0.00 0.01 0.00 56 1019.4
20221003031040 65 0 3.0 12.0 0.00 0.01 0.00 55 1019.6
20221003030537 65 0 2.0 12.0 0.00 0.01 0.00 57 1019.8
20221003030051 65 0 2.0 10.0 0.00 0.01 0.00 56 1019.8
20221003025538 64 32 3.0 10.0 0.00 0.01 0.00 58 1019.9
20221003025040 64 44 3.0 10.0 0.00 0.01 0.00 59 1019.9
20221003024550 64 84 5.0 10.0 0.00 0.01 0.00 58 1020.1
20221003024038 65 0 4.0 10.0 0.00 0.01 0.00 60 1020.0
20221003023539 64 34 4.0 11.0 0.00 0.01 0.00 60 1020.3
20221003023056 63 56 4.0 11.0 0.00 0.01 0.00 59 1020.2
20221003022542 64 26 4.0 10.0 0.00 0.01 0.00 59 1020.3
20221003022038 63 57 3.0 11.0 0.00 0.01 0.00 61 1020.4
20221003021552 63 0 4.0 11.0 0.00 0.01 0.00 61 1020.4
20221003021039 65 29 3.0 12.0 0.00 0.01 0.00 61 1020.4
20221003020538 63 61 4.0 12.0 0.00 0.01 0.00 64 1020.5
20221003020047 63 27 4.0 11.0 0.00 0.01 0.00 62 1020.6
20221003015538 63 59 4.0 11.0 0.00 0.04 0.00 63 1020.6
20221003015038 62 330 4.0 11.0 0.00 0.04 0.00 64 1020.6
20221003014553 63 15 4.0 11.0 0.00 0.04 0.00 63 1020.7
20221003014040 63 0 5.0 11.0 0.00 0.04 0.00 63 1020.7
20221003013539 63 30 4.0 13.0 0.00 0.04 0.00 63 1020.7
20221003013043 62 17 3.0 13.0 0.00 0.04 0.00 63 1020.7
20221003012539 63 55 3.0 13.0 0.00 0.04 0.00 67 1020.8
20221003012038 62 61 4.0 14.0 0.00 0.04 0.00 65 1020.8
20221003011552 63 32 5.0 14.0 0.00 0.04 0.00 65 1020.9
20221003011036 64 51 2.0 11.0 0.00 0.04 0.00 65 1020.9
20221003010535 62 25 3.0 13.0 0.00 0.04 0.00 66 1021.0
20221003010045 62 48 3.0 13.0 0.00 0.04 0.00 65 1021.0
20221003005537 61 73 4.0 13.0 0.00 0.14 0.00 66 1021.1
20221003005035 60 0 5.0 13.0 0.00 0.14 0.00 67 1021.0
20221003004545 60 0 2.0 10.0 0.00 0.14 0.00 68 1021.1
20221003004037 61 0 2.0 12.0 0.00 0.14 0.00 69 1021.0
20221003003535 60 24 4.0 12.0 0.00 0.14 0.00 70 1021.1
20221003003044 60 36 4.0 11.0 0.00 0.14 0.00 69 1021.1
20221003002540 61 23 4.0 11.0 0.00 0.14 0.00 66 1021.3
20221003002035 60 0 2.0 10.0 0.00 0.14 0.00 68 1021.3
20221003001548 60 91 3.0 10.0 0.00 0.14 0.00 68 1021.0
20221003001035 60 63 4.0 12.0 0.00 0.14 0.00 68 1021.2
20221003000538 59 0 5.0 12.0 0.00 0.14 0.00 68 1021.2
20221003000048 59 51 4.0 12.0 0.00 0.14 0.00 70 1021.3
20221002235538 59 50 4.0 11.0 0.00 0.34 0.00 70 1021.4
20221002235038 60 360 4.0 11.0 0.00 0.34 0.00 67 1021.4
20221002234545 59 36 4.0 10.0 0.00 0.34 0.00 71 1021.4
20221002234038 59 55 3.0 9.0 0.00 0.34 0.00 72 1021.3
20221002233535 59 38 3.0 10.0 0.00 0.34 0.00 72 1021.3
20221002233044 58 67 4.0 12.0 0.00 0.34 0.00 70 1021.3
20221002232535 58 0 4.0 12.0 0.00 0.34 0.00 69 1021.2
20221002232039 57 44 5.0 12.0 0.00 0.34 0.00 70 1021.3
20221002231552 57 61 4.0 11.0 0.00 0.34 0.00 69 1021.3
20221002231037 57 17 4.0 12.0 0.00 0.34 0.00 70 1021.4
20221002230535 57 44 2.0 12.0 0.00 0.34 0.00 70 1021.4
20221002230047 57 338 4.0 12.0 0.00 0.34 0.00 69 1021.3
20221002225541 56 53 5.0 12.0 0.00 0.44 0.00 70 1021.3
20221002225038 56 17 4.0 12.0 0.00 0.44 0.00 69 1021.3
20221002224547 57 38 2.0 12.0 0.00 0.44 0.00 72 1021.3
20221002224038 56 24 6.0 12.0 0.00 0.44 0.00 71 1021.4
20221002223538 57 42 3.0 11.0 0.00 0.44 0.00 73 1021.4
20221002223105 56 56 3.0 9.0 0.00 0.44 0.00 74 1021.3
20221002222538 56 30 3.0 9.0 0.00 0.44 0.00 75 1021.4
20221002222038 55 75 3.0 9.0 0.00 0.44 0.00 75 1021.4
20221002221540 55 19 3.0 9.0 0.00 0.44 0.00 76 1021.3
20221002221041 55 71 1.0 11.0 0.00 0.44 0.00 76 1021.4
20221002220540 55 87 4.0 11.0 0.00 0.44 0.00 76 1021.3
20221002220054 54 30 4.0 11.0 0.00 0.44 0.00 76 1021.4
20221002215539 54 26 3.0 9.0 0.00 0.45 0.00 78 1021.4
20221002215042 54 22 4.0 12.0 0.00 0.45 0.00 79 1021.3
20221002214551 53 28 4.0 12.0 0.00 0.45 0.00 79 1021.4
20221002214052 53 71 5.0 12.0 0.00 0.45 0.00 80 1021.4
20221002213539 53 26 4.0 8.0 0.00 0.45 0.00 81 1021.2
20221002213058 53 0 3.0 9.0 0.00 0.45 0.00 82 1021.4
20221002212540 52 56 3.0 9.0 0.00 0.45 0.00 82 1021.3
20221002212042 52 57 4.0 10.0 0.00 0.45 0.00 83 1021.2
20221002211553 52 45 3.0 10.0 0.00 0.45 0.00 83 1021.0
20221002211039 52 61 4.0 10.0 0.00 0.45 0.00 84 1021.0
20221002210541 52 26 2.0 9.0 0.00 0.45 0.00 86 1020.8
20221002210102 51 36 3.0 9.0 0.00 0.45 0.00 86 1020.8
20221002205539 51 55 4.0 9.0 0.00 0.51 0.00 87 1020.6
20221002205041 51 49 2.0 6.0 0.00 0.51 0.00 88 1020.7
20221002204556 50 30 2.0 7.0 0.00 0.51 0.00 89 1020.7
20221002204039 50 0 1.0 7.0 0.00 0.51 0.00 90 1020.6
20221002203538 49 25 1.0 6.0 0.00 0.51 0.00 91 1020.5
20221002203050 49 32 3.0 6.0 0.00 0.51 0.00 92 1020.5
20221002202541 48 0 0.0 3.0 0.00 0.51 0.00 93 1020.5
20221002202039 48 0 0.0 3.0 0.00 0.51 0.00 93 1020.5
20221002201547 47 45 0.0 3.0 0.00 0.51 0.00 94 1020.3
20221002201039 47 0 0.0 3.0 0.00 0.51 0.00 94 1020.2
20221002200540 47 0 0.0 0.0 0.00 0.51 0.00 94 1020.1
20221002200054 47 0 0.0 0.0 0.00 0.51 0.00 93 1019.9
20221002195542 46 0 0.0 3.0 0.00 0.57 0.00 93 1020.0
20221002195038 46 0 0.0 4.0 0.00 0.57 0.00 93 1019.9
20221002194546 46 0 1.0 4.0 0.00 0.57 0.00 93 1019.8
20221002194041 46 0 0.0 6.0 0.00 0.57 0.00 93 1019.7
20221002193539 46 0 2.0 6.0 0.00 0.57 0.00 93 1019.7
20221002193052 46 39 1.0 5.0 0.00 0.57 0.00 93 1019.6
20221002192540 46 10 1.0 5.0 0.00 0.57 0.00 93 1019.5
20221002192039 46 53 1.0 5.0 0.00 0.57 0.00 93 1019.5
20221002191550 46 49 2.0 5.0 0.00 0.57 0.00 93 1019.5
20221002191040 46 32 2.0 5.0 0.00 0.57 0.00 93 1019.5
20221002190539 46 27 2.0 5.0 0.00 0.57 0.00 93 1019.4
20221002190100 46 36 2.0 5.0 0.00 0.57 0.00 93 1019.3
20221002185540 46 67 2.0 5.0 0.00 0.57 0.00 93 1019.3
20221002185038 46 44 1.0 4.0 0.00 0.57 0.00 93 1019.2
20221002184550 46 45 0.0 5.0 0.00 0.57 0.00 93 1019.1
20221002184040 46 36 2.0 5.0 0.00 0.57 0.00 93 1018.9
20221002183539 46 39 2.0 5.0 0.00 0.57 0.00 93 1018.9
20221002183052 46 352 2.0 6.0 0.00 0.57 0.00 93 1018.7
20221002182539 47 32 2.0 6.0 0.00 0.57 0.00 93 1018.6
20221002182043 47 0 1.0 5.0 0.00 0.57 0.00 93 1018.5
20221002181604 47 49 1.0 5.0 0.00 0.57 0.00 93 1018.5
20221002181043 47 19 2.0 6.0 0.00 0.57 0.00 93 1018.4
20221002180539 47 43 2.0 6.0 0.00 0.57 0.00 93 1018.3
20221002180051 47 37 2.0 6.0 0.00 0.57 0.00 93 1018.3
20221002175538 47 20 2.0 8.0 0.00 0.57 0.00 93 1018.3
20221002175039 47 30 2.0 8.0 0.00 0.57 0.00 93 1018.3
20221002174549 47 352 2.0 5.0 0.00 0.57 0.00 93 1018.3
20221002174041 47 22 1.0 5.0 0.00 0.57 0.00 93 1018.3
20221002173539 47 0 0.0 4.0 0.00 0.57 0.00 93 1018.3
20221002173048 47 41 1.0 5.0 0.00 0.57 0.00 93 1018.2
20221002172540 47 28 2.0 5.0 0.00 0.57 0.00 94 1018.2
20221002172038 47 36 1.0 5.0 0.00 0.57 0.00 94 1018.1
20221002171547 47 29 2.0 5.0 0.00 0.57 0.00 94 1018.2
20221002171038 47 22 2.0 5.0 0.00 0.57 0.00 93 1018.2
20221002170539 47 360 2.0 5.0 0.00 0.57 0.00 94 1018.1
20221002170054 47 15 2.0 5.0 0.00 0.57 0.00 93 1018.1
20221002165537 47 39 2.0 5.0 0.00 0.57 0.00 94 1018.0
20221002165036 47 55 2.0 4.0 0.00 0.57 0.00 94 1018.0
20221002164543 47 48 1.0 4.0 0.00 0.57 0.00 94 1018.0
20221002164042 47 0 0.0 5.0 0.00 0.57 0.00 94 1018.0
20221002163540 47 27 1.0 7.0 0.00 0.57 0.00 94 1018.0
20221002163048 47 0 1.0 7.0 0.00 0.57 0.00 94 1017.9
20221002162538 47 0 1.0 5.0 0.00 0.57 0.00 94 1018.1
20221002162040 47 50 2.0 5.0 0.00 0.57 0.00 94 1018.0
20221002161549 47 40 1.0 5.0 0.00 0.57 0.00 94 1018.2
20221002161039 47 56 1.0 6.0 0.00 0.57 0.00 94 1018.1
20221002160539 47 34 2.0 6.0 0.00 0.57 0.00 94 1018.1
20221002160048 47 17 2.0 6.0 0.00 0.57 0.00 94 1018.2
20221002155539 47 34 2.0 6.0 0.00 0.57 0.00 94 1018.2
20221002155036 48 30 2.0 4.0 0.00 0.57 0.00 94 1018.3
20221002154545 48 62 2.0 5.0 0.00 0.56 0.00 94 1018.5
20221002154041 48 54 2.0 5.0 0.00 0.56 0.00 94 1018.7
20221002153538 48 36 1.0 4.0 0.00 0.56 0.00 94 1018.9
20221002153052 48 0 0.0 3.0 0.00 0.56 0.00 94 1018.8
20221002152539 48 0 0.0 5.0 0.00 0.56 0.00 94 1018.7
20221002152037 48 0 2.0 5.0 0.00 0.56 0.00 94 1018.8
20221002151544 48 36 1.0 4.0 0.00 0.56 0.00 94 1018.9
20221002151038 48 36 2.0 5.0 0.00 0.56 0.00 94 1018.9
20221002150539 48 46 2.0 5.0 0.00 0.56 0.00 94 1018.8
20221002150055 48 0 2.0 4.0 0.00 0.56 0.00 94 1018.9
20221002145541 48 0 0.0 6.0 0.00 0.77 0.00 94 1018.9
20221002145038 48 0 1.0 8.0 0.00 0.77 0.00 94 1018.9
20221002144545 49 31 2.0 8.0 0.00 0.77 0.00 94 1019.0
20221002144037 49 19 3.0 8.0 0.00 0.77 0.00 94 1018.9
20221002143050 49 15 2.0 5.0 0.00 0.77 0.00 94 1019.1
20221002142539 49 15 1.0 7.0 0.00 0.77 0.00 94 1019.1
20221002142039 49 56 2.0 8.0 0.00 0.77 0.00 94 1019.1
20221002141548 49 0 2.0 8.0 0.00 0.77 0.00 94 1019.1
20221002141039 49 0 2.0 6.0 0.00 0.77 0.00 94 1019.2
20221002140538 49 28 2.0 6.0 0.00 0.77 0.00 93 1019.2
20221002140046 49 36 2.0 6.0 0.00 0.77 0.00 93 1019.1
20221002135539 49 42 2.0 9.0 0.00 0.77 0.77 93 1019.1
20221002135039 49 53 3.0 9.0 0.00 0.77 0.77 94 1018.9
20221002134551 50 28 2.0 9.0 0.00 0.77 0.77 94 1018.8
20221002134037 50 14 3.0 6.0 0.00 0.77 0.77 93 1018.9
20221002133540 50 5 2.0 6.0 0.00 0.77 0.77 93 1018.9
20221002133051 50 36 2.0 8.0 0.00 0.77 0.77 93 1019.1
20221002132539 50 45 3.0 8.0 0.00 0.77 0.77 93 1019.0
20221002132041 50 48 3.0 8.0 0.00 0.77 0.77 93 1019.0
20221002131545 50 59 3.0 9.0 0.00 0.77 0.77 93 1019.2
20221002131037 50 9 4.0 9.0 0.00 0.77 0.77 93 1019.1
20221002130537 50 20 4.0 9.0 0.00 0.77 0.77 93 1019.2
20221002130102 51 28 2.0 8.0 0.00 0.77 0.77 93 1019.2
20221002125539 51 59 4.0 8.0 0.00 0.78 0.77 93 1019.1
20221002125039 51 33 2.0 7.0 0.00 0.78 0.77 93 1019.1
20221002124544 51 51 1.0 7.0 0.00 0.78 0.77 93 1019.3